This demonstration page uses our WeatherBlox Daily Observations layout. Learn more.

Left ArrowRight Arrow

39.08367, -84.50855

Hourly Observations for December 4, 2020

Temp ( °F °C ) Dew Point ( °F °C ) Humidity (%) Winds ( mph kmh ) Pressure ( in mb ) Visibility ( mi km ) Precip ( " mm )
12:53 am 00:53 Cloudy 38 3.3 33 0.6 83 83 Calm 30.14 1021 10 16.0934 0 0
1:53 am 01:53 Cloudy 38 3.3 34 1.1 86 86 NW 6 9 30.11 1020 10 16.0934 0 0
2:53 am 02:53 Cloudy 40 4.4 32 0 73 73 Calm 30.11 1020 10 16.0934 0 0
3:53 am 03:53 Cloudy 39 3.9 33 0.6 79 79 NW 3 6 30.09 1019 10 16.0934 0 0
4:53 am 04:53 Cloudy 40 4.4 33 0.6 77 77 Calm 30.08 1019 10 16.0934 0 0
5:53 am 05:53 Cloudy 40 4.4 32 0 73 73 Calm 30.06 1018 10 16.0934 0 0
6:53 am 06:53 Cloudy 40 4.4 32 0 73 73 S 3 6 30.07 1018 10 16.0934 0 0
7:43 am 07:43 Cloudy 40 4.4 33 0.6 77 77 SSW 7 11 30.07 1018 10 16.0934 0 0
7:50 am 07:50 Cloudy 41 5 34 1 76 76 S 9 15 30.08 1019 10 16.0934 0 0
7:53 am 07:53 Cloudy 41 5 33 0.6 73 73 S 8 13 30.07 1018 10 16.0934 0 0
8:53 am 08:53 Cloudy 42 5.6 35 1.7 76 76 S 7 11 30.07 1018 10 16.0934 0 0
9:53 am 09:53 Cloudy 44 6.7 37 2.8 76 76 S 5 7 30.07 1018 10 16.0934 0 0
10:53 am 10:53 Cloudy 46 7.8 39 3.9 77 77 SW 7 11 30.05 1018 10 16.0934 0 0
11:53 am 11:53 Cloudy 46 7.8 39 3.9 77 77 SSW 5 7 30.01 1016 10 16.0934 0 0
12:53 pm 12:53 Cloudy 47 8.3 38 3.3 71 71 W 7 11 29.98 1015 10 16.0934 0 0
1:53 pm 13:53 Cloudy 46 7.8 38 3.3 73 73 WNW 6 9 29.96 1015 10 16.0934 0 0
2:53 pm 14:53 Cloudy 46 7.8 38 3.3 73 73 W 8 13 29.93 1014 10 16.0934 0 0
3:53 pm 15:53 Cloudy 46 7.8 38 3.3 73 73 WSW 5 7 29.95 1014 10 16.0934 0 0
4:53 pm 16:53 Cloudy 45 7.2 39 3.9 80 80 WSW 5 7 29.94 1014 10 16.0934 0 0
5:53 pm 17:53 Mostly Clear 41 5 37 2.8 86 86 WSW 3 6 29.94 1014 10 16.0934 0 0
6:53 pm 18:53 Clear 36 2.2 35 1.7 97 97 S 6 9 29.96 1015 9 14.48406 0 0
7:53 pm 19:53 Clear 36 2.2 34 1.1 93 93 SSW 5 7 29.99 1016 9 14.48406 0 0
8:53 pm 20:53 Cloudy 41 5 37 2.8 86 86 WSW 5 7 29.99 1016 10 16.0934 0 0
9:53 pm 21:53 Cloudy 42 5.6 35 1.7 76 76 WSW 6 9 30.01 1016 10 16.0934 0 0
10:53 pm 22:53 Clear 40 4.4 33 0.6 77 77 WSW 6 9 30.01 1016 10 16.0934 0 0
11:53 pm 23:53 Partly Cloudy 38 3.3 32 0 79 79 SW 3 6 30.01 1016 10 16.0934 0 0

Powered by AerisWeather